Time,TemperatureF,DewpointF,PressureIn,WindDirection,WindDirectionDegrees,WindSpeedMPH,WindSpeedGustMPH,Humidity,HourlyPrecipIn,Conditions,Clouds,dailyrainin,SoftwareType,DateUTC
2013-03-24 00:00:00,29.2,21.0,30.05,NE,51,1.0,4.0,71,0.00,,---,0.00,VWS V13.01,2013-03-24 04:00:00,
2013-03-24 00:05:00,28.8,20.9,30.05,NE,52,2.0,4.0,72,0.00,,---,0.00,VWS V13.01,2013-03-24 04:05:00,
2013-03-24 00:10:00,28.6,20.7,30.04,NE,54,3.0,4.0,72,0.00,,---,0.00,VWS V13.01,2013-03-24 04:10:00,
2013-03-24 00:15:00,28.5,21.0,30.04,NE,49,1.0,4.0,73,0.00,,---,0.00,VWS V13.01,2013-03-24 04:15:00,
2013-03-24 00:20:00,28.5,21.0,30.04,NE,49,2.0,4.0,73,0.00,,---,0.00,VWS V13.01,2013-03-24 04:20:00,
2013-03-24 00:25:00,28.5,21.0,30.03,NE,49,1.0,4.0,73,0.00,,---,0.00,VWS V13.01,2013-03-24 04:25:00,
2013-03-24 00:30:00,28.3,20.8,30.03,NE,49,2.0,2.0,73,0.00,,---,0.00,VWS V13.01,2013-03-24 04:30:00,
2013-03-24 00:35:00,28.1,20.6,30.03,NE,49,2.0,3.0,73,0.00,,---,0.00,VWS V13.01,2013-03-24 04:35:00,
2013-03-24 00:40:00,28.0,20.8,30.02,NE,49,2.0,3.0,74,0.00,,---,0.00,VWS V13.01,2013-03-24 04:40:00,
2013-03-24 00:45:00,27.9,20.7,30.02,NE,49,2.0,3.0,74,0.00,,---,0.00,VWS V13.01,2013-03-24 04:45:00,
2013-03-24 00:50:00,27.8,20.6,30.02,NNE,26,2.0,4.0,74,0.00,,---,0.00,VWS V13.01,2013-03-24 04:50:00,
2013-03-24 00:55:00,27.8,20.6,30.02,NE,38,1.0,4.0,74,0.00,,---,0.00,VWS V13.01,2013-03-24 04:55:00,
2013-03-24 01:00:00,27.6,20.7,30.02,NE,42,2.0,3.0,75,0.00,,---,0.00,VWS V13.01,2013-03-24 05:00:00,
2013-03-24 01:05:00,27.5,20.6,30.01,NE,42,2.0,3.0,75,0.00,,---,0.00,VWS V13.01,2013-03-24 05:05:00,
2013-03-24 01:10:00,27.4,20.5,30.00,NNE,30,2.0,4.0,75,0.00,,---,0.00,VWS V13.01,2013-03-24 05:10:00,
2013-03-24 01:15:00,27.3,20.4,30.02,NE,42,0.0,4.0,75,0.00,,---,0.00,VWS V13.01,2013-03-24 05:15:00,
2013-03-24 01:20:00,27.1,20.2,30.03,NE,42,0.0,4.0,75,0.00,,---,0.00,VWS V13.01,2013-03-24 05:20:00,
2013-03-24 01:25:00,26.8,20.3,30.03,NE,42,0.0,4.0,76,0.00,,---,0.00,VWS V13.01,2013-03-24 05:25:00,
2013-03-24 01:30:00,26.6,20.1,30.03,NE,42,0.0,0.0,76,0.00,,---,0.00,VWS V13.01,2013-03-24 05:30:00,
2013-03-24 01:35:00,26.4,19.9,30.02,NE,42,0.0,0.0,76,0.00,,---,0.00,VWS V13.01,2013-03-24 05:35:00,
2013-03-24 01:40:00,26.2,19.7,30.02,NE,42,0.0,0.0,76,0.00,,---,0.00,VWS V13.01,2013-03-24 05:40:00,
2013-03-24 01:45:00,26.0,19.8,30.02,NE,42,1.0,2.0,77,0.00,,---,0.00,VWS V13.01,2013-03-24 05:45:00,
2013-03-24 01:50:00,25.8,19.6,30.02,NE,42,0.0,2.0,77,0.00,,---,0.00,VWS V13.01,2013-03-24 05:50:00,
2013-03-24 01:55:00,25.6,19.7,30.02,NE,42,0.0,2.0,78,0.00,,---,0.00,VWS V13.01,2013-03-24 05:55:00,
2013-03-24 02:00:00,25.4,19.5,30.02,NE,42,1.0,1.0,78,0.00,,---,0.00,VWS V13.01,2013-03-24 06:00:00,
2013-03-24 02:05:00,25.2,19.3,30.02,NE,42,0.0,1.0,78,0.00,,---,0.00,VWS V13.01,2013-03-24 06:05:00,
2013-03-24 02:10:00,25.1,19.5,30.01,NE,42,0.0,2.0,79,0.00,,---,0.00,VWS V13.01,2013-03-24 06:10:00,
2013-03-24 02:15:00,25.1,19.5,30.02,NE,42,1.0,2.0,79,0.00,,---,0.00,VWS V13.01,2013-03-24 06:15:00,
2013-03-24 02:20:00,25.0,19.7,30.02,NE,42,0.0,2.0,80,0.00,,---,0.00,VWS V13.01,2013-03-24 06:20:00,
2013-03-24 02:25:00,25.1,19.8,30.02,NE,42,1.0,2.0,80,0.00,,---,0.00,VWS V13.01,2013-03-24 06:25:00,
2013-03-24 02:30:00,25.1,19.5,30.02,NE,42,2.0,2.0,79,0.00,,---,0.00,VWS V13.01,2013-03-24 06:30:00,
2013-03-24 02:35:00,24.9,19.3,30.02,NE,42,1.0,3.0,79,0.00,,---,0.00,VWS V13.01,2013-03-24 06:35:00,
2013-03-24 02:40:00,24.8,19.5,30.01,NE,43,2.0,3.0,80,0.00,,---,0.00,VWS V13.01,2013-03-24 06:40:00,
2013-03-24 02:45:00,24.9,19.6,30.02,NE,43,1.0,3.0,80,0.00,,---,0.00,VWS V13.01,2013-03-24 06:45:00,
2013-03-24 02:50:00,25.1,19.8,30.02,NE,43,0.0,3.0,80,0.00,,---,0.00,VWS V13.01,2013-03-24 06:50:00,
2013-03-24 02:55:00,25.1,19.8,30.02,NE,43,1.0,3.0,80,0.00,,---,0.00,VWS V13.01,2013-03-24 06:55:00,
2013-03-24 03:00:00,25.0,19.7,30.02,NE,43,0.0,0.0,80,0.00,,---,0.00,VWS V13.01,2013-03-24 07:00:00,
2013-03-24 03:05:00,24.9,19.6,30.01,NE,43,2.0,2.0,80,0.00,,---,0.00,VWS V13.01,2013-03-24 07:05:00,
2013-03-24 03:10:00,24.9,19.6,30.01,NE,42,1.0,3.0,80,0.00,,---,0.00,VWS V13.01,2013-03-24 07:10:00,
2013-03-24 03:15:00,24.9,19.6,30.00,NE,42,1.0,3.0,80,0.00,,---,0.00,VWS V13.01,2013-03-24 07:15:00,
2013-03-24 03:20:00,24.9,19.6,30.00,NE,46,0.0,3.0,80,0.00,,---,0.00,VWS V13.01,2013-03-24 07:20:00,
2013-03-24 03:25:00,24.8,19.5,30.00,NE,46,1.0,3.0,80,0.00,,---,0.00,VWS V13.01,2013-03-24 07:25:00,
2013-03-24 03:30:00,24.7,19.4,30.00,NE,46,2.0,3.0,80,0.00,,---,0.00,VWS V13.01,2013-03-24 07:30:00,
2013-03-24 03:35:00,24.6,19.6,29.99,NE,44,2.0,4.0,81,0.00,,---,0.00,VWS V13.01,2013-03-24 07:35:00,
2013-03-24 03:40:00,24.7,20.0,29.99,NNE,22,2.0,4.0,82,0.00,,---,0.00,VWS V13.01,2013-03-24 07:40:00,
2013-03-24 03:45:00,24.9,20.2,29.99,NNE,25,3.0,4.0,82,0.00,,---,0.00,VWS V13.01,2013-03-24 07:45:00,
2013-03-24 03:50:00,25.1,20.1,29.99,NE,38,1.0,4.0,81,0.00,,---,0.00,VWS V13.01,2013-03-24 07:50:00,
2013-03-24 03:55:00,25.2,20.2,29.99,ENE,57,1.0,4.0,81,0.00,,---,0.00,VWS V13.01,2013-03-24 07:55:00,
2013-03-24 04:00:00,25.2,20.2,29.99,NE,55,1.0,1.0,81,0.00,,---,0.00,VWS V13.01,2013-03-24 08:00:00,
2013-03-24 04:05:00,25.2,19.9,30.00,NE,55,0.0,2.0,80,0.00,,---,0.00,VWS V13.01,2013-03-24 08:05:00,
2013-03-24 04:10:00,25.1,19.8,30.00,NE,55,0.0,2.0,80,0.00,,---,0.00,VWS V13.01,2013-03-24 08:10:00,
2013-03-24 04:15:00,24.9,19.9,30.00,ENE,57,1.0,3.0,81,0.00,,---,0.00,VWS V13.01,2013-03-24 08:15:00,
2013-03-24 04:20:00,24.9,19.9,30.00,ENE,61,2.0,3.0,81,0.00,,---,0.00,VWS V13.01,2013-03-24 08:20:00,
2013-03-24 04:25:00,24.9,19.9,30.00,ENE,59,1.0,3.0,81,0.00,,---,0.00,VWS V13.01,2013-03-24 08:25:00,
2013-03-24 04:30:00,24.9,19.9,30.00,ENE,59,2.0,2.0,81,0.00,,---,0.00,VWS V13.01,2013-03-24 08:30:00,
2013-03-24 04:35:00,24.9,19.9,30.01,ENE,59,0.0,3.0,81,0.00,,---,0.00,VWS V13.01,2013-03-24 08:35:00,
2013-03-24 04:40:00,24.9,19.9,30.01,ENE,59,0.0,3.0,81,0.00,,---,0.00,VWS V13.01,2013-03-24 08:40:00,
2013-03-24 04:45:00,24.9,19.9,30.01,ENE,59,0.0,3.0,81,0.00,,---,0.00,VWS V13.01,2013-03-24 08:45:00,
2013-03-24 04:50:00,24.7,19.7,30.01,ENE,59,1.0,3.0,81,0.00,,---,0.00,VWS V13.01,2013-03-24 08:50:00,
2013-03-24 04:55:00,24.7,20.0,30.01,ENE,59,1.0,3.0,82,0.00,,---,0.00,VWS V13.01,2013-03-24 08:55:00,
2013-03-24 05:00:00,24.7,20.0,30.01,ENE,59,1.0,1.0,82,0.00,,---,0.00,VWS V13.01,2013-03-24 09:00:00,
2013-03-24 05:05:00,24.6,19.9,30.01,ENE,62,1.0,2.0,82,0.00,,---,0.00,VWS V13.01,2013-03-24 09:05:00,
2013-03-24 05:10:00,24.6,19.9,30.01,ENE,65,2.0,3.0,82,0.00,,---,0.00,VWS V13.01,2013-03-24 09:10:00,
2013-03-24 05:15:00,24.7,20.0,30.00,ENE,63,2.0,3.0,82,0.00,,---,0.00,VWS V13.01,2013-03-24 09:15:00,
2013-03-24 05:20:00,24.7,20.0,30.00,NE,53,2.0,4.0,82,0.00,,---,0.00,VWS V13.01,2013-03-24 09:20:00,
2013-03-24 05:25:00,24.8,20.1,30.00,ENE,59,2.0,5.0,82,0.00,,---,0.00,VWS V13.01,2013-03-24 09:25:00,
2013-03-24 05:30:00,24.9,20.2,29.99,NE,52,3.0,4.0,82,0.00,,---,0.00,VWS V13.01,2013-03-24 09:30:00,
2013-03-24 05:35:00,24.9,20.2,29.99,NE,46,3.0,5.0,82,0.00,,---,0.00,VWS V13.01,2013-03-24 09:35:00,
2013-03-24 05:40:00,25.1,20.4,29.99,NE,55,2.0,7.0,82,0.00,,---,0.00,VWS V13.01,2013-03-24 09:40:00,
2013-03-24 05:45:00,25.1,20.4,29.99,NE,48,1.0,7.0,82,0.00,,---,0.00,VWS V13.01,2013-03-24 09:45:00,
2013-03-24 05:50:00,25.1,20.4,29.99,NE,53,1.0,7.0,82,0.00,,---,0.00,VWS V13.01,2013-03-24 09:50:00,
2013-03-24 05:55:00,25.0,20.3,29.99,NE,53,1.0,7.0,82,0.00,,---,0.00,VWS V13.01,2013-03-24 09:55:00,
2013-03-24 06:00:00,24.9,20.2,29.98,NE,47,2.0,4.0,82,0.00,,---,0.00,VWS V13.01,2013-03-24 10:00:00,
2013-03-24 06:05:00,24.8,20.1,29.98,NE,56,3.0,4.0,82,0.00,,---,0.00,VWS V13.01,2013-03-24 10:05:00,
2013-03-24 06:10:00,24.7,20.0,29.98,NE,46,3.0,4.0,82,0.00,,---,0.00,VWS V13.01,2013-03-24 10:10:00,
2013-03-24 06:15:00,24.5,19.8,29.99,NE,46,3.0,5.0,82,0.00,,---,0.00,VWS V13.01,2013-03-24 10:15:00,
2013-03-24 06:20:00,24.4,20.0,29.99,ENE,69,1.0,5.0,83,0.00,,---,0.00,VWS V13.01,2013-03-24 10:20:00,
2013-03-24 06:25:00,24.3,19.9,29.98,NE,51,4.0,5.0,83,0.00,,---,0.00,VWS V13.01,2013-03-24 10:25:00,
2013-03-24 06:30:00,24.3,20.2,29.98,NE,44,2.0,4.0,84,0.00,,---,0.00,VWS V13.01,2013-03-24 10:30:00,
2013-03-24 06:36:00,24.2,20.1,29.98,NNE,30,4.0,5.0,84,0.00,,---,0.00,VWS V13.01,2013-03-24 10:36:00,
2013-03-24 06:41:00,24.2,20.1,29.98,ENE,58,2.0,5.0,84,0.00,,---,0.00,VWS V13.01,2013-03-24 10:41:00,
2013-03-24 06:46:00,24.2,20.1,29.98,ENE,71,2.0,5.0,84,0.00,,---,0.00,VWS V13.01,2013-03-24 10:46:00,
2013-03-24 06:51:00,24.1,20.0,29.98,ENE,67,2.0,5.0,84,0.00,,---,0.00,VWS V13.01,2013-03-24 10:51:00,
2013-03-24 06:56:00,24.0,19.9,29.99,ENE,62,1.0,5.0,84,0.00,,---,0.00,VWS V13.01,2013-03-24 10:56:00,
2013-03-24 07:01:00,24.0,19.9,29.99,ENE,74,1.0,2.0,84,0.00,,---,0.00,VWS V13.01,2013-03-24 11:01:00,
2013-03-24 07:06:00,23.9,19.8,29.98,ENE,71,1.0,3.0,84,0.00,,---,0.00,VWS V13.01,2013-03-24 11:06:00,
2013-03-24 07:11:00,24.0,19.9,29.98,ENE,72,1.0,3.0,84,0.00,,---,0.00,VWS V13.01,2013-03-24 11:11:00,
2013-03-24 07:16:00,24.0,19.9,29.99,ENE,63,0.0,3.0,84,0.00,,---,0.00,VWS V13.01,2013-03-24 11:16:00,
2013-03-24 07:21:00,23.9,19.8,29.99,ENE,63,0.0,3.0,84,0.00,,---,0.00,VWS V13.01,2013-03-24 11:21:00,
2013-03-24 07:26:00,23.9,19.8,29.99,ENE,63,0.0,3.0,84,0.00,,---,0.00,VWS V13.01,2013-03-24 11:26:00,
2013-03-24 07:32:00,24.0,19.9,29.99,ENE,63,0.0,2.0,84,0.00,,---,0.00,VWS V13.01,2013-03-24 11:32:00,
2013-03-24 07:37:00,24.0,19.9,29.98,ENE,63,0.0,2.0,84,0.00,,---,0.00,VWS V13.01,2013-03-24 11:37:00,
2013-03-24 07:42:00,24.1,20.2,29.98,NE,54,1.0,3.0,85,0.00,,---,0.00,VWS V13.01,2013-03-24 11:42:00,
2013-03-24 07:47:00,24.3,20.5,29.98,NE,56,2.0,4.0,85,0.00,,---,0.00,VWS V13.01,2013-03-24 11:47:00,
2013-03-24 07:52:00,24.5,20.6,29.98,ENE,69,1.0,4.0,85,0.00,,---,0.00,VWS V13.01,2013-03-24 11:52:00,
2013-03-24 07:57:00,24.7,20.6,29.98,ENE,74,0.0,4.0,84,0.00,,---,0.00,VWS V13.01,2013-03-24 11:57:00,
2013-03-24 08:02:00,24.9,20.8,29.98,NE,51,0.0,4.0,84,0.00,,---,0.00,VWS V13.01,2013-03-24 12:02:00,
2013-03-24 08:07:00,25.2,21.0,29.97,ENE,67,2.0,4.0,84,0.00,,---,0.00,VWS V13.01,2013-03-24 12:07:00,
2013-03-24 08:12:00,25.5,21.4,29.97,NE,53,4.0,4.0,84,0.00,,---,0.00,VWS V13.01,2013-03-24 12:12:00,
2013-03-24 08:17:00,25.8,21.6,29.97,NE,51,0.0,5.0,84,0.00,,---,0.00,VWS V13.01,2013-03-24 12:17:00,
2013-03-24 08:22:00,26.1,21.6,29.96,NE,44,6.0,6.0,83,0.00,,---,0.00,VWS V13.01,2013-03-24 12:22:00,
2013-03-24 08:27:00,26.3,21.6,29.96,NNE,30,6.0,7.0,82,0.00,,---,0.00,VWS V13.01,2013-03-24 12:27:00,
2013-03-24 08:32:00,26.5,21.8,29.96,NE,36,3.0,4.0,82,0.00,,---,0.00,VWS V13.01,2013-03-24 12:32:00,
2013-03-24 08:37:00,26.6,21.9,29.96,NNE,28,3.0,7.0,82,0.00,,---,0.00,VWS V13.01,2013-03-24 12:37:00,
2013-03-24 08:42:00,26.8,22.0,29.95,ENE,71,2.0,7.0,82,0.00,,---,0.00,VWS V13.01,2013-03-24 12:42:00,
2013-03-24 08:47:00,27.0,22.2,29.95,NE,44,2.0,7.0,82,0.00,,---,0.00,VWS V13.01,2013-03-24 12:47:00,
2013-03-24 08:52:00,27.3,22.5,29.95,NE,42,2.0,7.0,82,0.00,,---,0.00,VWS V13.01,2013-03-24 12:52:00,
2013-03-24 08:57:00,27.6,22.8,29.95,ENE,78,3.0,7.0,82,0.00,,---,0.00,VWS V13.01,2013-03-24 12:57:00,
2013-03-24 09:02:00,27.9,23.1,29.94,NNE,32,4.0,7.0,82,0.00,,---,0.00,VWS V13.01,2013-03-24 13:02:00,
2013-03-24 09:07:00,28.1,23.0,29.94,NE,55,2.0,7.0,81,0.00,,---,0.00,VWS V13.01,2013-03-24 13:07:00,
2013-03-24 09:12:00,28.4,23.3,29.94,ENE,69,1.0,7.0,81,0.00,,---,0.00,VWS V13.01,2013-03-24 13:12:00,
2013-03-24 09:17:00,28.7,23.6,29.94,East,81,2.0,7.0,81,0.00,,---,0.00,VWS V13.01,2013-03-24 13:17:00,
2013-03-24 09:22:00,29.0,23.6,29.94,NE,46,4.0,7.0,80,0.00,,---,0.00,VWS V13.01,2013-03-24 13:22:00,
2013-03-24 09:27:00,29.2,23.8,29.94,NE,52,3.0,7.0,80,0.00,,---,0.00,VWS V13.01,2013-03-24 13:27:00,
2013-03-24 09:32:00,29.4,23.7,29.93,NE,56,1.0,4.0,79,0.00,,---,0.00,VWS V13.01,2013-03-24 13:32:00,
2013-03-24 09:37:00,29.7,24.3,29.93,NE,49,1.0,5.0,80,0.00,,---,0.00,VWS V13.01,2013-03-24 13:37:00,
2013-03-24 09:42:00,30.1,24.4,29.93,NE,44,3.0,5.0,79,0.00,,---,0.00,VWS V13.01,2013-03-24 13:42:00,
2013-03-24 09:47:00,30.3,24.6,29.93,NE,46,3.0,5.0,79,0.00,,---,0.00,VWS V13.01,2013-03-24 13:47:00,
2013-03-24 09:52:00,30.7,25.0,29.93,ENE,67,2.0,5.0,79,0.00,,---,0.00,VWS V13.01,2013-03-24 13:52:00,
2013-03-24 09:57:00,30.9,24.9,29.92,NE,38,4.0,6.0,78,0.00,,---,0.00,VWS V13.01,2013-03-24 13:57:00,
2013-03-24 10:02:00,31.2,24.8,29.92,ENE,71,2.0,4.0,77,0.00,,---,0.00,VWS V13.01,2013-03-24 14:02:00,
2013-03-24 10:07:00,31.5,24.8,29.92,NNE,32,4.0,7.0,76,0.00,,---,0.00,VWS V13.01,2013-03-24 14:07:00,
2013-03-24 10:12:00,31.9,25.2,29.91,NNE,19,4.0,7.0,76,0.00,,---,0.00,VWS V13.01,2013-03-24 14:12:00,
2013-03-24 10:17:00,32.2,25.2,29.91,NNE,14,3.0,7.0,75,0.00,,---,0.00,VWS V13.01,2013-03-24 14:17:00,
2013-03-24 10:22:00,32.6,25.2,29.90,NNE,32,3.0,7.0,74,0.00,,---,0.00,VWS V13.01,2013-03-24 14:22:00,
2013-03-24 10:27:00,33.1,25.4,29.89,NE,48,6.0,7.0,73,0.00,,---,0.00,VWS V13.01,2013-03-24 14:27:00,
2013-03-24 10:32:00,33.7,25.3,29.89,East,87,5.0,9.0,71,0.00,,---,0.00,VWS V13.01,2013-03-24 14:32:00,
2013-03-24 10:37:00,33.9,25.2,29.88,NE,51,6.0,10.0,70,0.00,,---,0.00,VWS V13.01,2013-03-24 14:37:00,
2013-03-24 10:42:00,34.2,25.1,29.88,NE,49,4.0,10.0,69,0.00,,---,0.00,VWS V13.01,2013-03-24 14:42:00,
2013-03-24 10:47:00,34.6,25.8,29.88,NE,46,5.0,10.0,70,0.00,,---,0.00,VWS V13.01,2013-03-24 14:47:00,
2013-03-24 10:52:00,34.8,25.3,29.87,NE,41,5.0,10.0,68,0.00,,---,0.00,VWS V13.01,2013-03-24 14:52:00,
2013-03-24 10:57:00,35.0,25.2,29.86,NNE,31,8.0,10.0,67,0.00,,---,0.00,VWS V13.01,2013-03-24 14:57:00,
2013-03-24 11:02:00,35.2,25.0,29.86,NE,42,4.0,9.0,66,0.00,,---,0.00,VWS V13.01,2013-03-24 15:02:00,
2013-03-24 11:07:00,35.5,24.9,29.85,NNE,20,2.0,9.0,65,0.00,,---,0.00,VWS V13.01,2013-03-24 15:07:00,
2013-03-24 11:12:00,35.9,24.9,29.84,ENE,69,3.0,9.0,64,0.00,,---,0.00,VWS V13.01,2013-03-24 15:12:00,
2013-03-24 11:18:00,36.2,24.8,29.84,NE,42,2.0,9.0,63,0.00,,---,0.00,VWS V13.01,2013-03-24 15:18:00,
2013-03-24 11:23:00,36.4,25.0,29.84,North,350,3.0,9.0,63,0.00,,---,0.00,VWS V13.01,2013-03-24 15:23:00,
2013-03-24 11:28:00,36.7,24.5,29.84,NNE,29,2.0,9.0,61,0.00,,---,0.00,VWS V13.01,2013-03-24 15:28:00,
2013-03-24 11:33:00,37.0,24.0,29.84,NNE,30,6.0,9.0,59,0.00,,---,0.00,VWS V13.01,2013-03-24 15:33:00,
2013-03-24 11:38:00,37.1,24.1,29.83,ENE,74,2.0,9.0,59,0.00,,---,0.00,VWS V13.01,2013-03-24 15:38:00,
2013-03-24 11:43:00,37.2,23.8,29.83,NNE,18,2.0,9.0,58,0.00,,---,0.00,VWS V13.01,2013-03-24 15:43:00,
2013-03-24 11:48:00,37.5,24.1,29.83,NE,39,4.0,9.0,58,0.00,,---,0.00,VWS V13.01,2013-03-24 15:48:00,
2013-03-24 11:53:00,37.7,24.3,29.83,NNE,28,4.0,9.0,58,0.00,,---,0.00,VWS V13.01,2013-03-24 15:53:00,
2013-03-24 11:58:00,37.9,24.0,29.83,NE,42,6.0,9.0,57,0.00,,---,0.00,VWS V13.01,2013-03-24 15:58:00,
2013-03-24 12:03:00,38.2,22.6,29.83,East,87,3.0,10.0,53,0.00,,---,0.00,VWS V13.01,2013-03-24 16:03:00,
2013-03-24 12:08:00,38.4,22.3,29.83,East,79,9.0,10.0,52,0.00,,---,0.00,VWS V13.01,2013-03-24 16:08:00,
2013-03-24 12:13:00,38.4,22.8,29.83,NE,34,4.0,10.0,53,0.00,,---,0.00,VWS V13.01,2013-03-24 16:13:00,
2013-03-24 12:18:00,38.6,22.0,29.83,ENE,78,5.0,13.0,51,0.00,,---,0.00,VWS V13.01,2013-03-24 16:18:00,
2013-03-24 12:23:00,38.7,22.6,29.82,ENE,69,3.0,13.0,52,0.00,,---,0.00,VWS V13.01,2013-03-24 16:23:00,
2013-03-24 12:28:00,39.1,23.0,29.82,ENE,57,5.0,13.0,52,0.00,,---,0.00,VWS V13.01,2013-03-24 16:28:00,
2013-03-24 12:33:00,39.6,23.4,29.81,ENE,63,3.0,10.0,52,0.00,,---,0.00,VWS V13.01,2013-03-24 16:33:00,
2013-03-24 12:38:00,39.9,23.3,29.81,ENE,73,2.0,10.0,51,0.00,,---,0.00,VWS V13.01,2013-03-24 16:38:00,
2013-03-24 12:43:00,40.2,24.0,29.80,ESE,112,4.0,10.0,52,0.00,,---,0.00,VWS V13.01,2013-03-24 16:43:00,
2013-03-24 12:48:00,40.2,22.6,29.79,ENE,58,3.0,10.0,49,0.00,,---,0.00,VWS V13.01,2013-03-24 16:48:00,
2013-03-24 12:53:00,40.4,23.2,29.78,SE,142,7.0,11.0,50,0.00,,---,0.00,VWS V13.01,2013-03-24 16:53:00,
2013-03-24 12:58:00,40.4,22.8,29.78,ESE,110,3.0,11.0,49,0.00,,---,0.00,VWS V13.01,2013-03-24 16:58:00,
2013-03-24 13:03:00,40.3,23.1,29.77,ESE,107,7.0,11.0,50,0.00,,---,0.00,VWS V13.01,2013-03-24 17:03:00,
2013-03-24 13:08:00,40.4,23.2,29.76,NE,42,7.0,11.0,50,0.00,,---,0.00,VWS V13.01,2013-03-24 17:08:00,
2013-03-24 13:13:00,40.5,23.8,29.76,East,84,1.0,11.0,51,0.00,,---,0.00,VWS V13.01,2013-03-24 17:13:00,
2013-03-24 13:18:00,40.6,23.4,29.76,ENE,74,5.0,11.0,50,0.00,,---,0.00,VWS V13.01,2013-03-24 17:18:00,
2013-03-24 13:23:00,40.6,23.9,29.75,East,93,10.0,14.0,51,0.00,,---,0.00,VWS V13.01,2013-03-24 17:23:00,
2013-03-24 13:28:00,40.6,23.9,29.75,East,92,3.0,14.0,51,0.00,,---,0.00,VWS V13.01,2013-03-24 17:28:00,
2013-03-24 13:33:00,40.5,23.8,29.75,ESE,114,4.0,10.0,51,0.00,,---,0.00,VWS V13.01,2013-03-24 17:33:00,
2013-03-24 13:38:00,40.7,24.5,29.75,ENE,64,7.0,10.0,52,0.00,,---,0.00,VWS V13.01,2013-03-24 17:38:00,
2013-03-24 13:43:00,40.7,23.5,29.75,East,101,5.0,15.0,50,0.00,,---,0.00,VWS V13.01,2013-03-24 17:43:00,
2013-03-24 13:48:00,40.6,23.9,29.75,East,101,2.0,15.0,51,0.00,,---,0.00,VWS V13.01,2013-03-24 17:48:00,
2013-03-24 13:53:00,40.9,24.2,29.75,ESE,105,9.0,15.0,51,0.00,,---,0.00,VWS V13.01,2013-03-24 17:53:00,
2013-03-24 13:58:00,41.3,23.6,29.75,ESE,113,1.0,15.0,49,0.00,,---,0.00,VWS V13.01,2013-03-24 17:58:00,
2013-03-24 14:03:00,41.5,23.8,29.75,SE,126,4.0,9.0,49,0.00,,---,0.00,VWS V13.01,2013-03-24 18:03:00,
2013-03-24 14:08:00,41.7,24.0,29.75,ESE,119,2.0,9.0,49,0.00,,---,0.00,VWS V13.01,2013-03-24 18:08:00,
2013-03-24 14:13:00,41.8,23.1,29.75,ENE,65,3.0,9.0,47,0.00,,---,0.00,VWS V13.01,2013-03-24 18:13:00,
2013-03-24 14:18:00,41.7,23.0,29.74,ESE,116,2.0,9.0,47,0.00,,---,0.00,VWS V13.01,2013-03-24 18:18:00,
2013-03-24 14:23:00,41.6,22.9,29.74,ENE,73,3.0,9.0,47,0.00,,---,0.00,VWS V13.01,2013-03-24 18:23:00,
2013-03-24 14:28:00,41.7,23.5,29.74,ESE,104,2.0,9.0,48,0.00,,---,0.00,VWS V13.01,2013-03-24 18:28:00,
2013-03-24 14:33:00,41.8,23.1,29.74,SE,130,1.0,8.0,47,0.00,,---,0.00,VWS V13.01,2013-03-24 18:33:00,
2013-03-24 14:38:00,41.7,22.5,29.74,East,85,6.0,8.0,46,0.00,,---,0.00,VWS V13.01,2013-03-24 18:38:00,
2013-03-24 14:43:00,41.4,22.2,29.74,East,88,3.0,9.0,46,0.00,,---,0.00,VWS V13.01,2013-03-24 18:43:00,
2013-03-24 14:48:00,41.3,22.6,29.74,SE,142,4.0,9.0,47,0.00,,---,0.00,VWS V13.01,2013-03-24 18:48:00,
2013-03-24 14:53:00,41.3,23.1,29.74,ESE,119,2.0,9.0,48,0.00,,---,0.00,VWS V13.01,2013-03-24 18:53:00,
2013-03-24 14:58:00,41.3,23.1,29.73,SE,128,2.0,9.0,48,0.00,,---,0.00,VWS V13.01,2013-03-24 18:58:00,
2013-03-24 15:03:00,41.3,23.1,29.73,SE,132,3.0,6.0,48,0.00,,---,0.00,VWS V13.01,2013-03-24 19:03:00,
2013-03-24 15:08:00,41.2,23.0,29.73,ENE,62,4.0,8.0,48,0.00,,---,0.00,VWS V13.01,2013-03-24 19:08:00,
2013-03-24 15:13:00,40.9,23.2,29.73,East,96,6.0,9.0,49,0.00,,---,0.00,VWS V13.01,2013-03-24 19:13:00,
2013-03-24 15:18:00,40.8,23.1,29.73,East,97,0.0,9.0,49,0.00,,---,0.00,VWS V13.01,2013-03-24 19:18:00,
2013-03-24 15:23:00,40.9,23.2,29.73,East,93,6.0,10.0,49,0.00,,---,0.00,VWS V13.01,2013-03-24 19:23:00,
2013-03-24 15:28:00,40.8,23.1,29.73,ESE,107,9.0,10.0,49,0.00,,---,0.00,VWS V13.01,2013-03-24 19:28:00,
2013-03-24 15:33:00,40.7,23.5,29.73,East,89,7.0,9.0,50,0.00,,---,0.00,VWS V13.01,2013-03-24 19:33:00,
2013-03-24 15:38:00,40.7,23.0,29.72,East,97,9.0,13.0,49,0.00,,---,0.00,VWS V13.01,2013-03-24 19:38:00,
2013-03-24 15:43:00,40.6,23.4,29.72,SE,146,3.0,13.0,50,0.00,,---,0.00,VWS V13.01,2013-03-24 19:43:00,
2013-03-24 15:48:00,40.7,23.5,29.72,ESE,105,3.0,13.0,50,0.00,,---,0.00,VWS V13.01,2013-03-24 19:48:00,
2013-03-24 15:53:00,41.0,24.3,29.72,East,86,6.0,13.0,51,0.00,,---,0.00,VWS V13.01,2013-03-24 19:53:00,
2013-03-24 15:58:00,41.5,24.3,29.71,ENE,71,7.0,13.0,50,0.00,,---,0.00,VWS V13.01,2013-03-24 19:58:00,
2013-03-24 16:03:00,42.1,24.8,29.71,ESE,115,7.0,12.0,50,0.00,,---,0.00,VWS V13.01,2013-03-24 20:03:00,
2013-03-24 16:08:00,42.7,25.4,29.71,East,101,6.0,12.0,50,0.00,,---,0.00,VWS V13.01,2013-03-24 20:08:00,
2013-03-24 16:13:00,43.1,25.3,29.71,East,81,2.0,12.0,49,0.00,,---,0.00,VWS V13.01,2013-03-24 20:13:00,
2013-03-24 16:18:00,43.2,24.9,29.71,NE,43,4.0,12.0,48,0.00,,---,0.00,VWS V13.01,2013-03-24 20:18:00,
2013-03-24 16:23:00,42.9,24.6,29.71,ENE,61,1.0,12.0,48,0.00,,---,0.00,VWS V13.01,2013-03-24 20:23:00,
2013-03-24 16:28:00,42.8,24.0,29.71,East,88,3.0,12.0,47,0.00,,---,0.00,VWS V13.01,2013-03-24 20:28:00,
2013-03-24 16:33:00,42.5,24.2,29.70,East,95,6.0,6.0,48,0.00,,---,0.00,VWS V13.01,2013-03-24 20:33:00,
2013-03-24 16:38:00,42.0,23.2,29.70,East,92,2.0,10.0,47,0.00,,---,0.00,VWS V13.01,2013-03-24 20:38:00,
2013-03-24 16:43:00,41.8,23.6,29.70,SE,142,3.0,10.0,48,0.00,,---,0.00,VWS V13.01,2013-03-24 20:43:00,
2013-03-24 16:48:00,41.8,24.5,29.70,East,98,6.0,10.0,50,0.00,,---,0.00,VWS V13.01,2013-03-24 20:48:00,
2013-03-24 16:53:00,41.7,24.0,29.69,East,92,7.0,10.0,49,0.00,,---,0.00,VWS V13.01,2013-03-24 20:53:00,
2013-03-24 16:58:00,41.6,23.9,29.69,SE,125,3.0,10.0,49,0.00,,---,0.00,VWS V13.01,2013-03-24 20:58:00,
2013-03-24 17:03:00,41.5,23.8,29.69,ESE,111,8.0,9.0,49,0.00,,---,0.00,VWS V13.01,2013-03-24 21:03:00,
2013-03-24 17:08:00,41.3,23.6,29.69,SE,131,4.0,9.0,49,0.00,,---,0.00,VWS V13.01,2013-03-24 21:08:00,
2013-03-24 17:13:00,41.2,23.5,29.69,ENE,76,5.0,9.0,49,0.00,,---,0.00,VWS V13.01,2013-03-24 21:13:00,
2013-03-24 17:18:00,41.1,23.4,29.68,ENE,60,9.0,11.0,49,0.00,,---,0.00,VWS V13.01,2013-03-24 21:18:00,
2013-03-24 17:23:00,41.0,23.3,29.68,ESE,105,7.0,11.0,49,0.00,,---,0.00,VWS V13.01,2013-03-24 21:23:00,
2013-03-24 17:28:00,40.9,23.7,29.68,ESE,107,7.0,11.0,50,0.00,,---,0.00,VWS V13.01,2013-03-24 21:28:00,
2013-03-24 17:33:00,40.9,23.2,29.68,East,83,6.0,10.0,49,0.00,,---,0.00,VWS V13.01,2013-03-24 21:33:00,
2013-03-24 17:38:00,40.8,23.1,29.67,SE,130,2.0,11.0,49,0.00,,---,0.00,VWS V13.01,2013-03-24 21:38:00,
2013-03-24 17:43:00,40.7,23.5,29.68,SE,138,3.0,11.0,50,0.00,,---,0.00,VWS V13.01,2013-03-24 21:43:00,
2013-03-24 17:48:00,40.6,23.0,29.67,East,94,5.0,11.0,49,0.00,,---,0.00,VWS V13.01,2013-03-24 21:48:00,
2013-03-24 17:53:00,40.4,23.2,29.67,SE,130,3.0,11.0,50,0.00,,---,0.00,VWS V13.01,2013-03-24 21:53:00,
2013-03-24 17:58:00,40.2,23.1,29.67,ESE,104,4.0,11.0,50,0.00,,---,0.00,VWS V13.01,2013-03-24 21:58:00,
2013-03-24 18:03:00,40.1,23.4,29.67,ESE,105,5.0,10.0,51,0.00,,---,0.00,VWS V13.01,2013-03-24 22:03:00,
2013-03-24 18:08:00,40.1,23.4,29.67,East,94,6.0,10.0,51,0.00,,---,0.00,VWS V13.01,2013-03-24 22:08:00,
2013-03-24 18:13:00,40.0,23.8,29.67,East,80,5.0,10.0,52,0.00,,---,0.00,VWS V13.01,2013-03-24 22:13:00,
2013-03-24 18:18:00,40.0,24.3,29.67,East,86,5.0,10.0,53,0.00,,---,0.00,VWS V13.01,2013-03-24 22:18:00,
2013-03-24 18:23:00,39.9,24.2,29.66,ESE,102,3.0,10.0,53,0.00,,---,0.00,VWS V13.01,2013-03-24 22:23:00,
2013-03-24 18:28:00,39.8,24.1,29.67,ENE,73,1.0,10.0,53,0.00,,---,0.00,VWS V13.01,2013-03-24 22:28:00,
2013-03-24 18:33:00,39.8,24.1,29.66,ENE,71,4.0,9.0,53,0.00,,---,0.00,VWS V13.01,2013-03-24 22:33:00,
2013-03-24 18:38:00,39.7,24.0,29.66,ESE,103,5.0,11.0,53,0.00,,---,0.00,VWS V13.01,2013-03-24 22:38:00,
2013-03-24 18:43:00,39.6,23.9,29.66,ESE,114,2.0,11.0,53,0.00,,---,0.00,VWS V13.01,2013-03-24 22:43:00,
2013-03-24 18:48:00,39.5,24.2,29.66,SE,138,5.0,11.0,54,0.00,,---,0.00,VWS V13.01,2013-03-24 22:48:00,
2013-03-24 18:53:00,39.5,24.2,29.66,East,90,6.0,11.0,54,0.00,,---,0.00,VWS V13.01,2013-03-24 22:53:00,
2013-03-24 18:58:00,39.3,24.1,29.66,East,87,5.0,11.0,54,0.00,,---,0.00,VWS V13.01,2013-03-24 22:58:00,
2013-03-24 19:03:00,39.3,24.1,29.66,ESE,115,7.0,10.0,54,0.00,,---,0.00,VWS V13.01,2013-03-24 23:03:00,
2013-03-24 19:08:00,39.2,23.5,29.66,East,86,6.0,12.0,53,0.00,,---,0.00,VWS V13.01,2013-03-24 23:08:00,
2013-03-24 19:13:00,39.2,23.5,29.66,ESE,111,4.0,12.0,53,0.00,,---,0.00,VWS V13.01,2013-03-24 23:13:00,
2013-03-24 19:18:00,39.1,23.9,29.65,East,98,2.0,12.0,54,0.00,,---,0.00,VWS V13.01,2013-03-24 23:18:00,
2013-03-24 19:23:00,39.1,23.9,29.65,East,92,6.0,12.0,54,0.00,,---,0.00,VWS V13.01,2013-03-24 23:23:00,
2013-03-24 19:28:00,39.0,23.8,29.66,ESE,123,3.0,12.0,54,0.00,,---,0.00,VWS V13.01,2013-03-24 23:28:00,
2013-03-24 19:33:00,38.9,23.2,29.66,SE,136,1.0,6.0,53,0.00,,---,0.00,VWS V13.01,2013-03-24 23:33:00,
2013-03-24 19:38:00,38.8,23.6,29.65,ESE,121,9.0,10.0,54,0.00,,---,0.00,VWS V13.01,2013-03-24 23:38:00,
2013-03-24 19:43:00,38.5,23.8,29.65,ESE,119,4.0,10.0,55,0.00,,---,0.00,VWS V13.01,2013-03-24 23:43:00,
2013-03-24 19:48:00,38.2,24.7,29.65,East,96,11.0,11.0,58,0.00,,---,0.00,VWS V13.01,2013-03-24 23:48:00,
2013-03-24 19:53:00,37.8,24.8,29.65,East,101,2.0,11.0,59,0.00,,---,0.00,VWS V13.01,2013-03-24 23:53:00,
2013-03-24 19:58:00,37.5,24.9,29.65,SSE,161,3.0,13.0,60,0.00,,---,0.00,VWS V13.01,2013-03-24 23:58:00,
2013-03-24 20:03:00,37.1,26.4,29.65,ESE,121,5.0,13.0,65,0.00,,---,0.00,VWS V13.01,2013-03-25 00:03:00,
2013-03-24 20:08:00,36.6,26.3,29.66,East,81,2.0,13.0,66,0.00,,---,0.00,VWS V13.01,2013-03-25 00:08:00,
2013-03-24 20:13:00,36.2,27.0,29.65,SE,130,5.0,13.0,69,0.00,,---,0.00,VWS V13.01,2013-03-25 00:13:00,
2013-03-24 20:18:00,35.9,27.1,29.65,ESE,105,5.0,13.0,70,0.00,,---,0.00,VWS V13.01,2013-03-25 00:18:00,
2013-03-24 20:23:00,35.6,26.8,29.64,East,91,10.0,13.0,70,0.00,,---,0.00,VWS V13.01,2013-03-25 00:23:00,
2013-03-24 20:28:00,35.5,27.0,29.64,ESE,102,10.0,14.0,71,0.00,,---,0.00,VWS V13.01,2013-03-25 00:28:00,
2013-03-24 20:33:00,35.2,27.8,29.64,East,82,7.0,18.0,74,0.00,,---,0.00,VWS V13.01,2013-03-25 00:33:00,
2013-03-24 20:38:00,35.0,27.9,29.63,East,94,3.0,18.0,75,0.00,,---,0.00,VWS V13.01,2013-03-25 00:38:00,
2013-03-24 20:43:00,34.8,28.0,29.63,East,79,7.0,18.0,76,0.00,,---,0.00,VWS V13.01,2013-03-25 00:43:00,
2013-03-24 20:48:00,34.7,27.6,29.63,East,101,10.0,18.0,75,0.00,,---,0.00,VWS V13.01,2013-03-25 00:48:00,
2013-03-24 20:53:00,34.8,27.7,29.63,ENE,71,5.0,18.0,75,0.00,,---,0.00,VWS V13.01,2013-03-25 00:53:00,
2013-03-24 20:58:00,34.9,27.5,29.62,East,81,3.0,18.0,74,0.00,,---,0.00,VWS V13.01,2013-03-25 00:58:00,
2013-03-24 21:03:00,34.8,27.7,29.63,NE,36,2.0,7.0,75,0.00,,---,0.00,VWS V13.01,2013-03-25 01:03:00,
2013-03-24 21:08:00,34.8,27.7,29.63,NE,56,3.0,7.0,75,0.00,,---,0.00,VWS V13.01,2013-03-25 01:08:00,
2013-03-24 21:13:00,34.8,28.0,29.63,ENE,67,8.0,10.0,76,0.00,,---,0.00,VWS V13.01,2013-03-25 01:13:00,
2013-03-24 21:18:00,34.8,28.3,29.63,ENE,67,0.0,10.0,77,0.00,,---,0.00,VWS V13.01,2013-03-25 01:18:00,
2013-03-24 21:23:00,34.7,28.2,29.63,ENE,68,3.0,10.0,77,0.00,,---,0.00,VWS V13.01,2013-03-25 01:23:00,
2013-03-24 21:28:00,34.6,28.1,29.63,ENE,78,9.0,11.0,77,0.00,,---,0.00,VWS V13.01,2013-03-25 01:28:00,
2013-03-24 21:33:00,34.5,28.7,29.63,East,84,8.0,8.0,79,0.00,,---,0.00,VWS V13.01,2013-03-25 01:33:00,
2013-03-24 21:38:00,34.4,28.6,29.63,East,95,8.0,12.0,79,0.00,,---,0.00,VWS V13.01,2013-03-25 01:38:00,
2013-03-24 21:43:00,34.3,28.5,29.63,ENE,67,2.0,12.0,79,0.00,,---,0.00,VWS V13.01,2013-03-25 01:43:00,
2013-03-24 21:48:00,34.2,28.4,29.63,NE,44,5.0,12.0,79,0.00,,---,0.00,VWS V13.01,2013-03-25 01:48:00,
2013-03-24 21:53:00,34.2,28.7,29.63,East,84,2.0,12.0,80,0.00,,---,0.00,VWS V13.01,2013-03-25 01:53:00,
2013-03-24 21:58:00,34.1,28.6,29.62,NNW,341,3.0,12.0,80,0.00,,---,0.00,VWS V13.01,2013-03-25 01:58:00,
2013-03-24 22:03:00,34.1,28.6,29.62,NNE,32,3.0,12.0,80,0.00,,---,0.00,VWS V13.01,2013-03-25 02:03:00,
2013-03-24 22:08:00,34.0,28.5,29.62,NNE,25,1.0,12.0,80,0.00,,---,0.00,VWS V13.01,2013-03-25 02:08:00,
2013-03-24 22:13:00,34.0,28.5,29.61,NNE,30,2.0,12.0,80,0.00,,---,0.00,VWS V13.01,2013-03-25 02:13:00,
2013-03-24 22:18:00,34.0,28.5,29.61,NE,55,5.0,17.0,80,0.00,,---,0.00,VWS V13.01,2013-03-25 02:18:00,
2013-03-24 22:23:00,33.9,28.4,29.61,NE,51,10.0,17.0,80,0.00,,---,0.00,VWS V13.01,2013-03-25 02:23:00,
2013-03-24 22:28:00,34.0,28.5,29.61,NNE,17,5.0,17.0,80,0.00,,---,0.00,VWS V13.01,2013-03-25 02:28:00,
2013-03-24 22:33:00,34.0,28.2,29.60,ENE,63,8.0,13.0,79,0.00,,---,0.00,VWS V13.01,2013-03-25 02:33:00,
2013-03-24 22:38:00,34.1,28.0,29.60,ENE,69,2.0,15.0,78,0.00,,---,0.00,VWS V13.01,2013-03-25 02:38:00,
2013-03-24 22:43:00,34.1,28.0,29.60,NE,40,11.0,15.0,78,0.00,,---,0.00,VWS V13.01,2013-03-25 02:43:00,
2013-03-24 22:48:00,34.3,27.9,29.60,ENE,68,4.0,17.0,77,0.00,,---,0.00,VWS V13.01,2013-03-25 02:48:00,
2013-03-24 22:53:00,34.3,28.2,29.59,ENE,67,9.0,17.0,78,0.00,,---,0.00,VWS V13.01,2013-03-25 02:53:00,
2013-03-24 22:58:00,34.3,27.9,29.59,East,87,5.0,17.0,77,0.00,,---,0.00,VWS V13.01,2013-03-25 02:58:00,
2013-03-24 23:03:00,34.4,27.6,29.59,NE,56,5.0,15.0,76,0.00,,---,0.00,VWS V13.01,2013-03-25 03:03:00,
2013-03-24 23:08:00,34.5,27.7,29.58,ENE,69,5.0,15.0,76,0.00,,---,0.00,VWS V13.01,2013-03-25 03:08:00,
2013-03-24 23:13:00,34.6,27.5,29.59,East,88,1.0,15.0,75,0.00,,---,0.00,VWS V13.01,2013-03-25 03:13:00,
2013-03-24 23:18:00,34.6,27.5,29.59,East,101,8.0,15.0,75,0.00,,---,0.00,VWS V13.01,2013-03-25 03:18:00,
2013-03-24 23:23:00,34.8,27.7,29.59,ENE,76,7.0,15.0,75,0.00,,---,0.00,VWS V13.01,2013-03-25 03:23:00,
2013-03-24 23:28:00,34.8,27.7,29.58,ENE,70,4.0,15.0,75,0.00,,---,0.00,VWS V13.01,2013-03-25 03:28:00,
2013-03-24 23:33:00,34.7,27.6,29.58,ENE,71,2.0,8.0,75,0.00,,---,0.00,VWS V13.01,2013-03-25 03:33:00,
2013-03-24 23:38:00,34.7,27.9,29.58,ENE,66,0.0,12.0,76,0.00,,---,0.00,VWS V13.01,2013-03-25 03:38:00,
2013-03-24 23:43:00,34.6,27.8,29.58,NE,53,2.0,12.0,76,0.00,,---,0.00,VWS V13.01,2013-03-25 03:43:00,
2013-03-24 23:48:00,34.6,27.8,29.57,NE,39,6.0,12.0,76,0.00,,---,0.00,VWS V13.01,2013-03-25 03:48:00,
2013-03-24 23:53:00,34.5,27.7,29.57,ESE,112,3.0,12.0,76,0.00,,---,0.00,VWS V13.01,2013-03-25 03:53:00,
2013-03-24 23:58:00,34.5,27.7,29.57,East,90,5.0,12.0,76,0.00,,---,0.00,VWS V13.01,2013-03-25 03:58:00,